timestamp,surface_pressure_avg,surface_temp_avg,battery_voltage,lat,long
2022-05-10 00:09:01+00:00,221.0616,4.9,12.09,47.84626,-54.09684
2022-05-10 00:19:00+00:00,221.8047,4.9,12.09,47.84626,-54.09684
2022-05-10 00:29:00+00:00,222.7648,4.9,12.09,47.84626,-54.09684
2022-05-10 00:39:00+00:00,225.093,4.9,12.09,47.84626,-54.09684
2022-05-10 00:49:00+00:00,225.3314,4.9,12.09,47.84626,-54.09684
2022-05-10 00:59:00+00:00,223.7464,4.91,12.09,47.84626,-54.09684
2022-05-10 01:09:00+00:00,221.9198,4.97,12.09,47.84626,-54.09684
2022-05-10 01:19:00+00:00,222.1447,4.99,12.09,47.84626,-54.09684
2022-05-10 01:29:00+00:00,222.5431,4.99,12.09,47.84626,-54.09684
2022-05-10 01:39:00+00:00,221.9315,4.99,12.09,47.84626,-54.09684
2022-05-10 01:49:00+00:00,222.0714,4.99,12.09,47.84626,-54.09684
2022-05-10 01:59:00+00:00,222.3414,4.98,12.09,47.84626,-54.09684
2022-05-10 02:09:00+00:00,225.0998,4.96,12.09,47.84626,-54.09684
2022-05-10 02:19:01+00:00,230.0514,4.9,12.09,47.84626,-54.09684
2022-05-10 02:29:01+00:00,233.9764,4.9,12.09,47.84626,-54.09684
2022-05-10 02:39:01+00:00,236.8181,4.9,12.09,47.84626,-54.09684
2022-05-10 02:49:01+00:00,238.0281,4.9,12.09,47.84626,-54.09684
2022-05-10 02:59:01+00:00,241.4364,4.9,12.09,47.84626,-54.09684
2022-05-10 03:09:01+00:00,243.1198,4.9,12.09,47.84626,-54.09684
2022-05-10 03:19:00+00:00,246.1164,4.9,12.09,47.84626,-54.09684
2022-05-10 03:29:00+00:00,249.5931,4.9,12.09,47.84626,-54.09684
2022-05-10 03:39:00+00:00,253.7731,4.9,12.09,47.84626,-54.09684
2022-05-10 03:49:00+00:00,255.0164,4.99,12.09,47.84626,-54.09684
2022-05-10 03:59:00+00:00,258.2314,5.0,12.09,47.84626,-54.09684
2022-05-10 04:09:00+00:00,261.7531,5.06,12.09,47.84626,-54.09684
2022-05-10 04:19:00+00:00,266.2181,5.0,12.09,47.84626,-54.09684
2022-05-10 04:29:00+00:00,268.1914,5.0,12.09,47.84626,-54.09684
2022-05-10 04:39:00+00:00,270.7548,5.0,12.09,47.84626,-54.09684
2022-05-10 04:49:00+00:00,275.3914,5.0,12.09,47.84626,-54.09684
2022-05-10 04:59:00+00:00,281.0797,5.0,12.09,47.84626,-54.09684
2022-05-10 05:09:00+00:00,281.5814,5.0,12.09,47.84626,-54.09684
2022-05-10 05:19:00+00:00,281.4948,5.03,12.01,47.84626,-54.09684
2022-05-10 05:29:00+00:00,283.5714,5.03,12.01,47.84626,-54.09684
2022-05-10 05:39:00+00:00,288.2464,5.03,12.01,47.84626,-54.09684
2022-05-10 05:49:00+00:00,290.6514,5.05,12.01,47.84626,-54.09684
2022-05-10 05:59:00+00:00,290.8114,5.07,12.01,47.84626,-54.09684
2022-05-10 06:09:00+00:00,292.5414,5.09,12.01,47.84626,-54.09684
2022-05-10 06:19:00+00:00,295.5197,5.1,12.01,47.84626,-54.09684
2022-05-10 06:29:00+00:00,301.9213,5.13,12.01,47.84626,-54.09684
2022-05-10 06:39:00+00:00,301.048,5.17,12.01,47.84626,-54.09684
2022-05-10 06:49:00+00:00,298.4864,5.19,12.01,47.84626,-54.09684
2022-05-10 06:59:00+00:00,298.6946,5.28,12.01,47.84626,-54.09684
2022-05-10 07:09:00+00:00,299.6379,5.29,12.01,47.84626,-54.09684
2022-05-10 07:19:00+00:00,294.823,5.28,12.01,47.84626,-54.09684
2022-05-10 07:29:00+00:00,290.6963,5.2,12.01,47.84626,-54.09684
2022-05-10 07:39:00+00:00,291.8531,5.1,12.01,47.84626,-54.09684
2022-05-10 07:49:00+00:00,293.3614,5.1,12.01,47.84626,-54.09684
2022-05-10 07:59:00+00:00,287.1064,5.1,12.01,47.84626,-54.09684
2022-05-10 08:09:00+00:00,286.0614,5.18,12.01,47.84626,-54.09684
2022-05-10 08:19:01+00:00,286.9714,5.17,12.01,47.84626,-54.09684
2022-05-10 08:29:01+00:00,282.8647,5.14,12.01,47.84626,-54.09684
2022-05-10 08:39:01+00:00,276.078,5.1,12.01,47.84626,-54.09684
2022-05-10 08:49:01+00:00,275.808,5.1,12.01,47.84626,-54.09684
2022-05-10 08:59:01+00:00,274.5414,5.1,12.01,47.84626,-54.09684
2022-05-10 09:09:01+00:00,266.9731,5.1,12.01,47.84626,-54.09684
2022-05-10 09:19:01+00:00,261.4147,5.1,12.01,47.84626,-54.09684
2022-05-10 09:29:01+00:00,258.9798,5.1,12.01,47.84626,-54.09684
2022-05-10 09:39:01+00:00,254.5164,5.1,12.01,47.84626,-54.09684
2022-05-10 09:49:01+00:00,248.8581,5.06,12.01,47.84626,-54.09684
2022-05-10 09:59:01+00:00,247.1047,5.04,12.01,47.84626,-54.09684
2022-05-10 10:09:01+00:00,243.2631,5.06,12.01,47.84626,-54.09684
2022-05-10 10:19:01+00:00,238.0181,5.08,12.01,47.84626,-54.09684
2022-05-10 10:29:01+00:00,232.9581,5.08,12.01,47.84626,-54.09684
2022-05-10 10:39:01+00:00,230.8114,5.09,12.01,47.84626,-54.09684
2022-05-10 10:49:01+00:00,226.6348,5.1,12.01,47.84626,-54.09684
2022-05-10 10:59:01+00:00,222.3531,5.1,12.01,47.84626,-54.09684
2022-05-10 11:09:01+00:00,220.0281,5.2,12.01,47.84626,-54.09684
2022-05-10 11:19:00+00:00,217.1548,5.2,12.01,47.84626,-54.09684
2022-05-10 11:29:00+00:00,212.8632,5.2,12.01,47.84626,-54.09684
2022-05-10 11:39:00+00:00,210.0164,5.2,12.01,47.84626,-54.09684
2022-05-10 11:49:00+00:00,210.9999,5.2,12.01,47.84626,-54.09684
2022-05-10 11:59:00+00:00,209.7898,5.2,12.01,47.84626,-54.09684
2022-05-10 12:09:00+00:00,207.0514,5.2,12.01,47.84626,-54.09684
2022-05-10 12:19:01+00:00,208.3132,5.22,12.09,47.84626,-54.09684
2022-05-10 12:29:01+00:00,209.1031,5.23,12.09,47.84626,-54.09684
2022-05-10 12:39:01+00:00,206.7498,5.2,12.09,47.84626,-54.09684
2022-05-10 12:49:01+00:00,206.0164,5.19,12.09,47.84626,-54.09684
2022-05-10 12:59:01+00:00,207.1597,5.1,12.09,47.84626,-54.09684
2022-05-10 13:09:01+00:00,204.6364,5.1,12.09,47.84626,-54.09684
2022-05-10 13:19:00+00:00,204.5664,5.16,12.01,47.84626,-54.09684
2022-05-10 13:29:00+00:00,207.0281,5.2,12.01,47.84626,-54.09684
2022-05-10 13:39:00+00:00,204.9615,5.2,12.01,47.84626,-54.09684
2022-05-10 13:49:00+00:00,201.9048,5.24,12.01,47.84626,-54.09684
2022-05-10 13:59:00+00:00,206.1531,5.3,12.01,47.84626,-54.09684
2022-05-10 14:09:00+00:00,209.9431,5.28,12.01,47.84626,-54.09684
2022-05-10 14:19:00+00:00,207.7998,5.2,12.01,47.84626,-54.09684
2022-05-10 14:29:00+00:00,206.6447,5.2,12.01,47.84626,-54.09684
2022-05-10 14:39:00+00:00,209.4414,5.24,12.01,47.84626,-54.09684
2022-05-10 14:49:00+00:00,213.168,5.2,12.01,47.84626,-54.09684
2022-05-10 14:59:00+00:00,212.0898,5.19,12.01,47.84626,-54.09684
2022-05-10 15:09:00+00:00,212.5414,5.1,12.01,47.84626,-54.09684
2022-05-10 15:19:00+00:00,218.1014,5.1,12.01,47.84626,-54.09684
2022-05-10 15:29:00+00:00,219.7881,5.1,12.01,47.84626,-54.09684
2022-05-10 15:39:00+00:00,219.4015,5.16,12.01,47.84626,-54.09684
2022-05-10 15:49:00+00:00,222.7498,5.18,12.01,47.84626,-54.09684
2022-05-10 15:59:00+00:00,229.3315,5.2,12.01,47.84626,-54.09684
2022-05-10 16:09:00+00:00,234.6697,5.2,12.01,47.84626,-54.09684
2022-05-10 16:19:01+00:00,240.6331,5.27,12.01,47.84626,-54.09684
2022-05-10 16:29:01+00:00,247.7364,5.3,12.01,47.84626,-54.09684
2022-05-10 16:39:01+00:00,253.7498,5.3,12.01,47.84626,-54.09684
2022-05-10 16:49:01+00:00,258.9698,5.32,12.01,47.84626,-54.09684
2022-05-10 16:59:01+00:00,261.9165,5.37,12.01,47.84626,-54.09684
2022-05-10 17:09:01+00:00,264.3248,5.4,12.01,47.84626,-54.09684
2022-05-10 17:19:01+00:00,268.433,5.4,12.17,47.84626,-54.09684
2022-05-10 17:29:01+00:00,274.0897,5.4,12.17,47.84626,-54.09684
2022-05-10 17:39:01+00:00,273.8614,5.4,12.17,47.84626,-54.09684
2022-05-10 17:49:01+00:00,274.0247,5.4,12.17,47.84626,-54.09684
2022-05-10 17:59:01+00:00,279.0281,5.4,12.17,47.84626,-54.09684
2022-05-10 18:09:01+00:00,283.2814,5.37,12.17,47.84626,-54.09684
2022-05-10 18:19:01+00:00,281.0298,5.3,12.09,47.84626,-54.09684
2022-05-10 18:29:01+00:00,277.9881,5.37,12.09,47.84626,-54.09684
2022-05-10 18:39:01+00:00,278.8914,5.4,12.09,47.84626,-54.09684
2022-05-10 18:49:01+00:00,280.7581,5.4,12.09,47.84626,-54.09684
2022-05-10 18:59:01+00:00,280.5963,5.4,12.09,47.84626,-54.09684
2022-05-10 19:09:01+00:00,280.548,5.47,12.09,47.84626,-54.09684
2022-05-10 19:19:01+00:00,280.7847,5.5,12.09,47.84626,-54.09684
2022-05-10 19:29:01+00:00,282.8513,5.5,12.09,47.84626,-54.09684
2022-05-10 19:39:01+00:00,284.3547,5.5,12.09,47.84626,-54.09684
2022-05-10 19:49:01+00:00,282.498,5.49,12.09,47.84626,-54.09684
2022-05-10 19:59:01+00:00,279.3713,5.4,12.09,47.84626,-54.09684
2022-05-10 20:09:01+00:00,279.7081,5.4,12.09,47.84626,-54.09684
2022-05-10 20:19:01+00:00,280.3781,5.4,12.09,47.84626,-54.09684
2022-05-10 20:29:01+00:00,274.8897,5.4,12.09,47.84626,-54.09684
2022-05-10 20:39:01+00:00,271.0231,5.44,12.09,47.84626,-54.09684
2022-05-10 20:49:01+00:00,270.3514,5.48,12.09,47.84626,-54.09684
2022-05-10 20:59:01+00:00,267.9131,5.5,12.09,47.84626,-54.09684
2022-05-10 21:09:01+00:00,260.5781,5.5,12.09,47.84626,-54.09684
2022-05-10 21:19:01+00:00,254.7514,5.5,12.09,47.84626,-54.09684
2022-05-10 21:29:01+00:00,253.3148,5.5,12.09,47.84626,-54.09684
2022-05-10 21:39:01+00:00,251.2947,5.5,12.09,47.84626,-54.09684
2022-05-10 21:49:01+00:00,246.4698,5.5,12.09,47.84626,-54.09684
2022-05-10 21:59:01+00:00,240.8031,5.47,12.09,47.84626,-54.09684
2022-05-10 22:09:01+00:00,240.3948,5.4,12.09,47.84626,-54.09684
2022-05-10 22:19:01+00:00,239.7498,5.4,12.09,47.84626,-54.09684
2022-05-10 22:29:01+00:00,234.5881,5.4,12.09,47.84626,-54.09684
2022-05-10 22:39:01+00:00,230.1048,5.42,12.09,47.84626,-54.09684
2022-05-10 22:49:01+00:00,233.5748,5.45,12.09,47.84626,-54.09684
2022-05-10 22:59:01+00:00,233.4348,5.47,12.09,47.84626,-54.09684
2022-05-10 23:09:01+00:00,227.8214,5.48,12.09,47.84626,-54.09684
2022-05-10 23:19:01+00:00,224.9514,5.49,12.01,47.84626,-54.09684
2022-05-10 23:29:01+00:00,229.4964,5.5,12.01,47.84626,-54.09684
2022-05-10 23:39:01+00:00,227.7231,5.5,12.01,47.84626,-54.09684
2022-05-10 23:49:01+00:00,220.7498,5.5,12.01,47.84626,-54.09684
2022-05-10 23:59:01+00:00,218.2431,5.5,12.01,47.84626,-54.09684
